[[{"header":{"parameterUnit":"m.s-1","parameterCategory":1,"la1":30.2991,"la2":30.254,"lo1":-89.0895,"lo2":-89.0444,"dy":0.0017,"dx":0.0017,"nx":28,"ny":28,"refTime":"2025-05-18T03:00:00:Z","depth":0,"parameterNumber":2,"parameterNumberName":"U-component_of_WINDS"},"data":[0,0,0,0,0,0,0,0,0,0,0,0,0,0,0,0,0,0,0,0,0,0,0,0,0,0,0,0,0,0,0,0,0,0,0,0,0,0,0,0,0,0,0,0,0,0,0,0,0,0,0,0,0,0,0,0,0,0,-0.2202,-0.2201,0,-0.2088,-0.2087,-0.2086,-0.2022,-0.2022,-0.2022,-0.2022,-0.1904,-0.1901,-0.1898,0,0,0,0,0,0,0,0,0,0,0,0,0,-0.2364,-0.2361,-0.2202,-0.2201,-0.2199,-0.2089,-0.2087,-0.2086,-0.2022,-0.2022,-0.2022,-0.2021,-0.1905,-0.1901,-0.1898,0,0,0,0,0,0,0,0,0,0,0,0,0,-0.2276,-0.236,-0.2202,-0.2154,-0.2149,-0.2089,-0.2087,-0.2085,-0.2022,-0.2022,-0.2022,-0.2021,-0.1906,-0.1902,-0.1897,-0.1876,0,0,-0.1884,-0.1882,0,0,0,0,0,0,0,0,-0.2281,-0.227,-0.2163,-0.2157,-0.2151,-0.2069,-0.2101,-0.2015,-0.2022,-0.207,-0.2022,-0.2021,-0.1959,-0.195,-0.193,-0.1871,-0.1866,-0.1883,-0.1881,-0.1879,-0.1878,0,0,0,0,0,0,0,-0.2287,-0.2275,-0.2157,-0.2161,-0.2154,-0.2138,-0.2126,-0.2084,-0.2018,-0.2066,-0.2061,-0.2049,-0.1956,-0.1934,-0.1926,-0.1864,-0.1884,-0.188,-0.1877,-0.1875,-0.1782,-0.1782,0,0,0,0,0,0,-0.2301,-0.228,-0.2161,-0.2154,-0.2217,-0.2136,-0.2121,-0.2096,-0.2018,-0.2006,-0.2049,-0.2046,-0.1942,-0.1932,-0.1922,-0.1892,-0.1879,-0.1875,-0.1872,-0.1782,-0.1782,-0.1782,0,0,0,0,0,0,-0.2305,-0.2291,-0.2165,-0.2216,-0.2198,-0.2133,-0.2105,-0.2094,-0.2072,-0.2005,-0.1993,-0.2039,-0.1941,-0.1928,-0.1888,-0.1887,-0.1873,-0.1869,-0.1782,-0.1782,-0.1782,-0.1832,0,0,0,0,0,0,-0.231,-0.2293,-0.2284,-0.2216,-0.2196,-0.2134,-0.2105,-0.2092,-0.2064,-0.206,-0.1992,-0.1981,-0.194,-0.1895,-0.1884,-0.1881,-0.1865,-0.1782,-0.1782,-0.1782,-0.183,-0.1834,-0.1837,0,0,0,0,0,-0.2316,-0.2302,-0.2284,-0.227,-0.2184,-0.2134,-0.2122,-0.2076,-0.2065,-0.2055,-0.2013,-0.1983,-0.1889,-0.1892,-0.1878,-0.1874,-0.1781,-0.1782,-0.1782,-0.1829,-0.1833,-0.1837,0,0,0,0,0,0,-0.2371,-0.2292,-0.2271,-0.2235,-0.2192,-0.2123,-0.211,-0.2082,-0.204,-0.2037,-0.1981,-0.1966,-0.1932,-0.1899,-0.1903,-0.1849,-0.1832,-0.183,-0.1872,-0.1876,-0.1879,-0.1888,-0.1862,0,0,0,0,0,-0.238,-0.2346,-0.2278,-0.2253,-0.2233,-0.2175,-0.2152,-0.212,-0.2072,-0.2053,-0.2008,-0.1962,-0.1923,-0.1897,-0.1857,-0.1826,-0.181,-0.1816,-0.182,-0.1823,-0.1821,-0.1803,-0.1804,-0.1784,-0.1784,-0.1784,0,0,-0.2396,-0.2349,-0.233,-0.2263,-0.2226,-0.2192,-0.216,-0.2125,-0.21,-0.2048,-0.2007,-0.1973,-0.1918,-0.1883,-0.1865,-0.1854,-0.1824,-0.1823,-0.1826,-0.1823,-0.1803,-0.1805,-0.1807,-0.1784,-0.1784,-0.1784,0,0,-0.2408,-0.2369,-0.2344,-0.2307,-0.2251,-0.2213,-0.2208,-0.2143,-0.2118,-0.2077,-0.2037,-0.2006,-0.1939,-0.1902,-0.1875,-0.1875,-0.1846,-0.1863,-0.1881,-0.1863,-0.1865,-0.1866,-0.1866,-0.1867,-0.1862,-0.1862,-0.1862,0,-0.2435,-0.2383,-0.2334,-0.2302,-0.2274,-0.2226,-0.22,-0.2167,-0.2101,-0.2082,-0.2072,-0.1987,-0.1947,-0.1902,-0.1903,-0.1882,-0.1873,-0.187,-0.1869,-0.187,-0.187,-0.1869,-0.1869,-0.1865,-0.1864,-0.1864,-0.1864,0,-0.2419,-0.2384,-0.237,-0.2308,-0.2278,-0.2249,-0.2197,-0.2172,-0.2143,-0.2107,-0.2066,-0.2016,-0.1966,-0.1953,-0.1924,-0.1904,-0.1899,-0.188,-0.1861,-0.1875,-0.1874,-0.1873,-0.1868,-0.1867,-0.1866,-0.1866,0,0,-0.2462,-0.2375,-0.237,-0.2342,-0.2277,-0.2248,-0.2218,-0.2169,-0.2149,-0.2105,-0.2078,-0.2023,-0.2005,-0.1974,-0.194,-0.1925,-0.1929,-0.1907,-0.1905,-0.1913,-0.1904,-0.1919,-0.1919,-0.191,-0.1909,-0.1909,-0.1908,0,-0.2465,-0.2408,-0.2364,-0.2323,-0.229,-0.2245,-0.2218,-0.2176,-0.2141,-0.2108,-0.2069,-0.2031,-0.201,-0.1991,-0.1974,-0.1932,-0.1926,-0.1931,-0.1883,-0.1882,-0.1898,-0.1919,-0.1934,-0.1936,-0.1908,-0.1907,-0.1907,0,-0.2461,-0.2419,-0.2376,-0.2315,-0.2299,-0.2276,-0.2228,-0.2197,-0.2148,-0.2124,-0.209,-0.2055,-0.2021,-0.2007,-0.1959,-0.1964,-0.1941,-0.1918,-0.1917,-0.191,-0.1895,-0.1912,-0.1935,-0.1935,-0.1906,-0.1906,-0.1906,0,-0.2497,-0.243,-0.2395,-0.2372,-0.23,-0.2285,-0.2255,-0.2205,-0.2179,-0.2137,-0.2119,-0.2074,-0.2049,-0.2015,-0.1969,-0.1963,-0.1926,-0.1908,-0.1905,-0.1906,-0.1898,-0.1899,-0.1918,-0.1885,-0.1885,-0.1885,-0.1885,0,-0.2504,-0.2479,-0.241,-0.2389,-0.236,-0.231,-0.2282,-0.2248,-0.2205,-0.2176,-0.2134,-0.2108,-0.205,-0.2016,-0.1981,-0.1947,-0.1936,-0.1915,-0.1906,-0.1918,-0.1921,-0.1903,-0.1901,-0.1885,-0.1885,-0.1885,-0.1885,0,-0.2539,-0.2492,-0.2451,-0.2387,-0.237,-0.2352,-0.2297,-0.2274,-0.2238,-0.2202,-0.2191,-0.2133,-0.2092,-0.2044,-0.1987,-0.1963,-0.1932,-0.1918,-0.1948,-0.1943,-0.1943,-0.1944,-0.195,-0.1948,-0.1917,-0.1918,-0.1918,0,-0.2547,-0.2526,-0.246,-0.2438,-0.2409,-0.2374,-0.2347,-0.2297,-0.2271,-0.2214,-0.2199,-0.2155,-0.2117,-0.2054,-0.2007,-0.1963,-0.1948,-0.1953,-0.1941,-0.1955,-0.1948,-0.1949,-0.1947,-0.1956,-0.1957,-0.1957,-0.1958,0,-0.2565,-0.2543,-0.2506,-0.2461,-0.243,-0.2392,-0.2353,-0.2337,-0.2279,-0.2252,-0.221,-0.218,-0.2123,-0.208,-0.203,-0.1998,-0.1969,-0.1962,-0.1959,-0.1972,-0.199,-0.198,-0.1957,-0.1962,-0.1962,-0.1961,-0.1961,-0.1961,-0.2587,-0.2567,-0.2518,-0.2478,-0.2443,-0.2407,-0.2383,-0.2344,-0.2308,-0.2257,-0.223,-0.2189,-0.2141,-0.2072,-0.2041,-0.2008,-0.1998,-0.1993,-0.1992,-0.1992,-0.1996,-0.1996,-0.1999,-0.1999,-0.1998,-0.1998,-0.1998,0,-0.2603,-0.257,-0.2534,-0.248,-0.2449,-0.2424,-0.2379,-0.2354,-0.2319,-0.2277,-0.224,-0.2192,-0.2151,-0.2101,-0.2056,-0.2039,-0.2024,-0.2029,-0.2029,-0.2023,-0.2007,-0.2015,-0.2042,-0.2042,-0.2042,-0.2042,-0.2042,-0.2042,-0.2608,-0.2574,-0.2546,-0.2494,-0.246,-0.2419,-0.2396,-0.2363,-0.2329,-0.2277,-0.2243,-0.2211,-0.2166,-0.2117,-0.2078,-0.2064,-0.205,-0.2059,-0.2041,-0.2028,-0.2024,-0.202,-0.2026,-0.2056,-0.2056,-0.2059,-0.2059,-0.2059]},{"header":{"parameterUnit":"m.s-1","parameterCategory":1,"la1":30.2991,"la2":30.254,"lo1":-89.0895,"lo2":-89.0444,"dy":0.0017,"dx":0.0017,"nx":28,"ny":28,"refTime":"2025-05-18T03:00:00:Z","depth":0,"parameterNumber":3,"parameterNumberName":"V-component_of_WINDS"},"data":[0,0,0,0,0,0,0,0,0,0,0,0,0,0,0,0,0,0,0,0,0,0,0,0,0,0,0,0,0,0,0,0,0,0,0,0,0,0,0,0,0,0,0,0,0,0,0,0,0,0,0,0,0,0,0,0,0,0,4.8275,4.8275,0,4.828,4.828,4.828,4.828,4.828,4.828,4.828,4.828,4.828,4.828,0,0,0,0,0,0,0,0,0,0,0,0,0,4.8264,4.8264,4.8275,4.8275,4.8275,4.828,4.828,4.828,4.828,4.828,4.828,4.828,4.8279,4.828,4.828,0,0,0,0,0,0,0,0,0,0,0,0,0,4.8268,4.8264,4.8275,4.8276,4.8276,4.828,4.828,4.828,4.828,4.828,4.828,4.828,4.8279,4.828,4.828,4.8281,0,0,4.828,4.828,0,0,0,0,0,0,0,0,4.8268,4.8269,4.8275,4.8276,4.8276,4.8279,4.8276,4.828,4.828,4.8278,4.828,4.828,4.8279,4.8279,4.828,4.8281,4.8281,4.828,4.828,4.828,4.828,0,0,0,0,0,0,0,4.8268,4.8268,4.8276,4.8276,4.8276,4.8275,4.8276,4.8276,4.8279,4.8278,4.8278,4.8279,4.8279,4.828,4.828,4.8281,4.828,4.828,4.828,4.828,4.8288,4.8288,0,0,0,0,0,0,4.8268,4.8268,4.8276,4.8277,4.8272,4.8275,4.8276,4.8278,4.8279,4.8279,4.8279,4.8279,4.828,4.828,4.828,4.8284,4.828,4.828,4.828,4.8287,4.8288,4.8288,0,0,0,0,0,0,4.8267,4.8268,4.8276,4.8273,4.8274,4.8276,4.8278,4.8278,4.8279,4.828,4.828,4.828,4.828,4.828,4.8282,4.8284,4.828,4.828,4.8287,4.8287,4.8288,4.8291,0,0,0,0,0,0,4.8267,4.8268,4.8269,4.8273,4.8274,4.8279,4.8278,4.8278,4.828,4.828,4.828,4.828,4.828,4.8282,4.8282,4.8284,4.828,4.8287,4.8287,4.8288,4.8291,4.8292,4.8292,0,0,0,0,0,4.8267,4.8268,4.8269,4.827,4.8275,4.8279,4.8279,4.828,4.828,4.8281,4.8282,4.828,4.8284,4.8282,4.8282,4.8284,4.8287,4.8287,4.8288,4.8291,4.8292,4.8292,0,0,0,0,0,0,4.8262,4.8268,4.827,4.8272,4.8276,4.8279,4.828,4.8281,4.8282,4.8282,4.8282,4.8282,4.8285,4.8285,4.8282,4.8288,4.8285,4.8286,4.8288,4.8289,4.8289,4.8289,4.828,0,0,0,0,0,4.8262,4.8266,4.827,4.8272,4.8274,4.8277,4.8278,4.828,4.8282,4.8283,4.8283,4.8285,4.8287,4.8287,4.8289,4.8291,4.8292,4.8293,4.8294,4.8294,4.8295,4.8299,4.83,4.8289,4.8289,4.8289,0,0,4.826,4.8264,4.8266,4.8272,4.8274,4.8278,4.8278,4.828,4.8283,4.8282,4.8286,4.8287,4.8288,4.8291,4.8293,4.8291,4.8298,4.8295,4.8295,4.8295,4.8299,4.83,4.8301,4.8289,4.8289,4.8289,0,0,4.826,4.8263,4.8266,4.827,4.8275,4.8278,4.8279,4.8283,4.8284,4.8288,4.8289,4.8291,4.8294,4.8296,4.8297,4.8302,4.8301,4.8302,4.8305,4.8309,4.831,4.8311,4.8315,4.8316,4.8303,4.8303,4.8303,0,4.8257,4.8263,4.8267,4.8272,4.8275,4.8278,4.8282,4.8284,4.8288,4.829,4.8289,4.8296,4.8296,4.8301,4.8303,4.8304,4.8305,4.8302,4.831,4.8311,4.8312,4.8315,4.8316,4.8303,4.8303,4.8303,4.8303,0,4.8261,4.8265,4.8268,4.8275,4.8279,4.8282,4.8287,4.829,4.8292,4.8294,4.8299,4.8301,4.8305,4.8306,4.8306,4.8312,4.8312,4.831,4.8308,4.8313,4.8316,4.8317,4.8303,4.8303,4.8303,4.8303,0,0,4.8254,4.8268,4.8268,4.8274,4.8281,4.8284,4.8289,4.8295,4.8299,4.8302,4.8307,4.8311,4.8311,4.8313,4.8314,4.8317,4.8324,4.8316,4.8316,4.8319,4.8333,4.8334,4.8336,4.8324,4.8324,4.8324,4.8333,0,4.8256,4.8266,4.8272,4.828,4.8286,4.829,4.8295,4.83,4.8303,4.8308,4.8311,4.8315,4.8314,4.8316,4.832,4.8322,4.8327,4.8322,4.8328,4.8328,4.8328,4.8337,4.8338,4.8346,4.8334,4.8335,4.8335,0,4.8258,4.8265,4.8275,4.8286,4.8288,4.8292,4.83,4.8304,4.8311,4.8313,4.8318,4.8319,4.8325,4.8323,4.8332,4.8328,4.8331,4.8334,4.8334,4.8335,4.8332,4.8339,4.8349,4.835,4.8336,4.8336,4.8336,0,4.8255,4.8267,4.8275,4.8279,4.829,4.8294,4.8299,4.8306,4.831,4.8316,4.832,4.8326,4.8329,4.8334,4.8337,4.8335,4.8346,4.8344,4.8349,4.8349,4.835,4.835,4.8362,4.8351,4.8351,4.8351,4.8351,0,4.8256,4.8261,4.8274,4.8279,4.8287,4.8293,4.83,4.8305,4.8312,4.8318,4.8322,4.8327,4.8332,4.8338,4.8341,4.8349,4.8349,4.8352,4.8353,4.8352,4.8352,4.8354,4.8354,4.8352,4.8352,4.8352,4.8352,0,4.8252,4.8261,4.8271,4.8283,4.8286,4.8291,4.8302,4.8307,4.8312,4.832,4.8322,4.833,4.8338,4.8343,4.8351,4.8353,4.8363,4.8362,4.8361,4.8362,4.8367,4.8367,4.8381,4.8383,4.8371,4.8371,4.8371,0,4.8252,4.8258,4.8272,4.8278,4.8284,4.8292,4.8298,4.8306,4.8312,4.8322,4.8326,4.8335,4.8343,4.8355,4.8361,4.8368,4.8369,4.8374,4.837,4.837,4.8371,4.8371,4.8373,4.8374,4.8374,4.8374,4.8374,0,4.8252,4.8258,4.8267,4.8279,4.8287,4.8295,4.8304,4.8308,4.8318,4.8324,4.8334,4.834,4.8352,4.8361,4.837,4.8374,4.8376,4.8376,4.8378,4.8377,4.8377,4.8379,4.8364,4.8375,4.8375,4.8375,4.8375,4.8375,4.8252,4.8258,4.8271,4.8282,4.829,4.8299,4.8306,4.8314,4.8323,4.8335,4.8339,4.8349,4.8359,4.8372,4.8377,4.8385,4.8384,4.8386,4.8387,4.8387,4.8389,4.8376,4.8386,4.8386,4.8386,4.8386,4.8386,0,4.8253,4.8263,4.8273,4.8287,4.8297,4.8301,4.8312,4.8319,4.8329,4.8339,4.8348,4.836,4.837,4.8378,4.8389,4.8394,4.8395,4.8396,4.8396,4.8398,4.8388,4.8386,4.8395,4.8395,4.8395,4.8395,4.8395,4.8395,4.8255,4.8267,4.8274,4.8291,4.83,4.8313,4.8319,4.8328,4.8337,4.8352,4.8361,4.8367,4.8377,4.8389,4.8399,4.8401,4.8405,4.8406,4.8409,4.8399,4.8398,4.8397,4.8395,4.8407,4.8407,4.8418,4.8418,4.8418]}]]